Tracking 34151 objects as of 20-May-2026
HD Live streaming from Space Station
objects crossing your sky now

COSMOS 2559 (GLONASS)

Track COSMOS 2559 (GLONASS) now!
COSMOS 2559 (GLONASS) is classified as:


NORAD ID: 54031
Int'l Code: 2022-130A
Perigee: 19,106.2 km
Apogee: 19,168.0 km
Inclination: 64.3 °
Period: 675.7 minutes
Semi major axis: 25508 km
RCS: Unknown
Launch date: October 10, 2022
Source: Commonwealth of Independent States (former USSR) (CIS)
Launch site: PLESETSK MISSILE AND SPACE COMPLEX (PKMTR)
SV: 707K
Your satellite tracking list
Your tracking list is empty




NASA's NSSDC Master Catalog

Two Line Element Set (TLE):
1 54031U 22130A   26139.30364975 -.00000039  00000-0  00000-0 0  9992
2 54031  64.2945 315.5867 0012125 176.3720 183.6319  2.13101396 28071
Source of the keplerian elements: AFSPC